West Chatham, MA

2:46 AM EST on February 24, 2017 (GMT -0500)
Chatham Municipal

Weather History for KCQX - January, 2014

Change the Weather History Date:

Friday, January 17, 2014

  Actual Average Record
Temperature  
Mean Temperature 38 °F -  
Max Temperature 43 °F 33 °F 46 °F (2012)
Min Temperature 33 °F 20 °F 0 °F (1982)
Degree Days  
Heating Degree Days 27    
Moisture  
Dew Point 35 °F    
Average Humidity 87    
Maximum Humidity 96    
Minimum Humidity 65    
Precipitation  
Precipitation 0.00 in - - ()
Sea Level Pressure  
Sea Level Pressure 29.97 in    
Wind  
Wind Speed 3 mph (SW)    
Max Wind Speed 10 mph    
Max Gust Speed 20 mph    
Visibility 9 miles    
Events      
Averages and records for this station are not official NWS values.
T = Trace of Precipitation, MM = Missing Value Source: NWS Daily Summary

Daily Weather History Graph

Daily Weather History Graph

Search for Another Location

Airport or City:

Trip Planner

Search our weather history database for the weather conditions in past years. The results will help you decide how hot, cold, wet, or windy it might be!

Date:

Astronomy

Jan. 17, 2014 Rise Set
Actual Time 7:03 AM EST 4:36 PM EST
Civil Twilight 6:33 AM EST 5:07 PM EST
Nautical Twilight 5:58 AM EST 5:41 PM EST
Astronomical Twilight 5:25 AM EST 6:14 PM EST
Moon 6:22 PM EST (1/17) 7:27 AM EST (1/17)
Length of Visible Light 10h 34m
Length of Day
9h 33m
Full, 98% of the Moon is Illuminated
Jan 17
Full
Jan 24
Last Quarter
Jan 30
New
Feb 6
First Quarter
Feb 14
Full

Hourly Weather History & Observations

Time (EST) Temp. Windchill Dew Point Humidity Pressure Visibility Wind Dir Wind Speed Gust Speed Precip Events Conditions
12:36 AM 41.0 °F 39.0 °F 39.0 °F 93% 29.92 in 9.0 mi Variable 3.5 mph - N/A   Overcast
12:52 AM 41.0 °F - 39.0 °F 93% 29.93 in 9.0 mi Calm Calm - N/A   Overcast
1:23 AM 41.0 °F - 39.0 °F 93% 29.93 in 10.0 mi Calm Calm - N/A   Overcast
1:52 AM 41.0 °F 39.0 °F 37.9 °F 89% 29.95 in 10.0 mi Variable 3.5 mph - N/A   Overcast
2:06 AM 39.9 °F 35.8 °F 37.9 °F 93% 29.94 in 10.0 mi WNW 5.8 mph - N/A   Overcast
2:30 AM 39.9 °F - 37.9 °F 93% 29.94 in 10.0 mi Calm Calm - N/A   Overcast
2:52 AM 39.9 °F - 37.0 °F 89% 29.94 in 10.0 mi Calm Calm - N/A   Overcast
3:03 AM 39.9 °F - 37.0 °F 89% 29.93 in 10.0 mi Calm Calm - N/A   Overcast
3:18 AM 39.0 °F - 36.0 °F 89% 29.93 in 10.0 mi Calm Calm - N/A   Mostly Cloudy
3:28 AM 37.9 °F - 35.1 °F 89% 29.93 in 9.0 mi Calm Calm - N/A   Scattered Clouds
3:52 AM 36.0 °F - 33.1 °F 89% 29.94 in 9.0 mi Calm Calm - N/A   Clear
4:52 AM 33.1 °F - 32.0 °F 96% 29.96 in 7.0 mi Calm Calm - N/A   Mostly Cloudy
5:20 AM 34.0 °F - 32.0 °F 92% 29.95 in 7.0 mi Calm Calm - N/A   Mostly Cloudy
5:52 AM 34.0 °F - 32.0 °F 92% 29.96 in 7.0 mi Calm Calm - N/A   Overcast
6:29 AM 34.0 °F - 32.0 °F 92% 29.95 in 6.0 mi Calm Calm - N/A   Mostly Cloudy
6:52 AM 34.0 °F - 32.0 °F 92% 29.96 in 7.0 mi Calm Calm - N/A   Mostly Cloudy
8:31 AM 39.0 °F 36.8 °F 37.9 °F 96% 29.99 in 5.0 mi Variable 3.5 mph - N/A   Overcast
8:52 AM 39.0 °F 34.8 °F 37.9 °F 96% 30.01 in 5.0 mi SW 5.8 mph - N/A   Overcast
9:04 AM 39.0 °F 35.7 °F 37.9 °F 96% 30.00 in 5.0 mi SW 4.6 mph - N/A   Overcast
9:38 AM 39.0 °F 35.7 °F 37.0 °F 93% 29.99 in 6.0 mi WSW 4.6 mph - N/A   Scattered Clouds
9:52 AM 41.0 °F 35.8 °F 37.9 °F 89% 30.01 in 7.0 mi SW 8.1 mph - N/A   Partly Cloudy
10:02 AM 42.1 °F 36.6 °F 37.9 °F 85% 30.00 in 8.0 mi SSW 9.2 mph - N/A   Scattered Clouds
10:52 AM 42.1 °F 36.6 °F 36.0 °F 79% 30.01 in 10.0 mi WSW 9.2 mph 19.6 mph N/A   Partly Cloudy
11:52 AM 43.0 °F 37.2 °F 32.0 °F 65% 29.98 in 10.0 mi SW 10.4 mph 16.1 mph N/A   Clear
12:52 PM 43.0 °F 37.7 °F 34.0 °F 71% 29.97 in 10.0 mi SW 9.2 mph 16.1 mph N/A   Clear
1:52 PM 42.1 °F 37.7 °F 34.0 °F 73% 29.97 in 10.0 mi SSW 6.9 mph - N/A   Clear
2:52 PM 39.9 °F 35.8 °F 33.1 °F 77% 29.97 in 10.0 mi Variable 5.8 mph - N/A   Clear
3:52 PM 39.0 °F 34.8 °F 33.1 °F 79% 29.98 in 10.0 mi Variable 5.8 mph - N/A   Clear
4:52 PM 37.0 °F 33.3 °F 32.0 °F 82% 29.99 in 9.0 mi SW 4.6 mph - N/A   Clear
5:52 PM 36.0 °F 32.1 °F 32.0 °F 86% 29.99 in 9.0 mi WSW 4.6 mph - N/A   Clear
6:52 PM 35.1 °F 31.0 °F 30.9 °F 85% 29.99 in 10.0 mi West 4.6 mph - N/A   Clear
7:52 PM 34.0 °F - 28.9 °F 82% 29.99 in 10.0 mi Calm Calm - N/A   Clear
8:52 PM 33.1 °F 30.0 °F 28.9 °F 85% 30.00 in 10.0 mi SSW 3.5 mph - N/A   Clear
9:52 PM 34.0 °F 31.0 °F 30.0 °F 85% 30.00 in 10.0 mi South 3.5 mph - N/A   Clear
10:52 PM 35.1 °F 32.2 °F 32.0 °F 89% 29.99 in 10.0 mi South 3.5 mph - N/A   Scattered Clouds
11:52 PM 37.0 °F 33.3 °F 32.0 °F 82% 29.95 in 10.0 mi South 4.6 mph - N/A   Clear